Regional Weather Roundup
Issued by NWS

Home | Current Version | Previous Version | Graphics & Text | Print | Product List | Glossary Off
Versions: 1 2 3 4 5 6 7 8 9 10 11 12 13 14 15 16 17 18 19 20 21 22 23 24 25 26 27 28 29 30 31 32 33 34 35 36 37 38 39 40 41 42 43 44 45 46 47 48 49 50

915
ASUS43 KTOP 150059
RWRKS

WEATHER ROUNDUP FOR KANSAS
NATIONAL WEATHER SERVICE GOODLAND KS
700 PM CST THU DEC 14 2017

NOTE:  "FAIR" INDICATES FEW OR NO CLOUDS BELOW 12,000 FEET WITH NO
SIGNIFICANT WEATHER AND/OR OBSTRUCTIONS TO VISIBILITY.

KSZ001>006-013>018-027>032-041>047-150200-
NORTHWEST KANSAS

CITY           SKY/WX    TMP DP  RH WIND       PRES   REMARKS
GOODLAND       MOCLDY    29  22  75 NW12      30.21R WCI  19
HAYS           CLEAR     34  25  69 N10       30.20R WCI  26
HILL CITY      CLOUDY    36  25  64 N7        30.20R
RUSSELL        MOCLDY    38  31  76 N17       30.17R WCI  28
$$

KSZ061>065-074>080-084>089-150200-
SOUTHWEST KANSAS

CITY           SKY/WX    TMP DP  RH WIND       PRES   REMARKS
DODGE CITY     CLOUDY    38  29  70 NW12      30.20R WCI  30
GARDEN CITY    CLEAR     31  24  75 NW10      30.22R WCI  22
GREAT BEND     MOCLDY    38  29  70 N12       30.19R WCI  30
LIBERAL        CLEAR     32  23  69 NW9       30.22R
$$

KSZ066>073-081>083-090>101-150200-
SOUTHEAST KANSAS

CITY           SKY/WX    TMP DP  RH WIND       PRES   REMARKS
CHANUTE        CLOUDY    39  28  64 S6        30.11R
COFFEYVILLE    CLOUDY    38  27  64 S3        30.14R
HUTCHINSON     PTCLDY    42  33  70 NW12      30.14R
MEDICINE LODGE   N/A     41  31  67 N8        30.16R
NEWTON         CLOUDY    42  31  64 NW15      30.13R
PARSONS        CLOUDY    34  26  72 CALM      30.13R
WICHITA INTL   CLOUDY    48  32  53 NW14      30.13R
WICHITA JABRA  CLOUDY    44  32  62 NW10      30.12R
WICHITA MCCONL CLOUDY    46  29  53 N13       30.12R
WINFIELD       CLOUDY    44  26  49 CALM      30.14R
$$

KSZ007>012-019>026-033>040-048>060-102>105-150200-
NORTHEAST KANSAS

CITY           SKY/WX    TMP DP  RH WIND       PRES   REMARKS
CONCORDIA      CLOUDY    38  35  89 NW10      30.14R WCI  31
EMPORIA        CLOUDY    42  28  57 NW9       30.11R
LAWRENCE       CLOUDY    39  27  62 CALM      30.10R
MANHATTAN      CLOUDY    42  33  70 N6        30.13R
OLATHE IND     CLOUDY    36  25  64 S3        30.11R
OLATHE EXE     CLOUDY    35  25  66 S3        30.10R
SALINA         CLOUDY    42  37  82 NW14      30.15R
TOPEKA BILLARD CLOUDY    42  28  57 N3        30.10R
TOPEKA FORBES  CLOUDY    44  28  53 NW10      30.10R
$$




USA.gov is the U.S. government's official web portal to all federal, state and local government web resources and services.